Theta_e
345 345 349 349 349 350 350 349 348 349 348 347 348 349 350 351 351 352 352 352 351 351 349 349 348 348 347 346 347 347 347 349 348 348 348 349 350 350 351 349 350 354 357 355 352 349 350 354 353 352 356 356 356 354 351 353 355 355 354 353 353 354 352 349 347 345 342 340 340 340 341 341 341 342 340 341 342 340 340 339 340 340 338 338 339
345 347 348 349 350 350 350 349 349 350 349 347 348 350 351 351 352 353 353 352 352 352 351 350 349 347 347 347 347 347 347 347 347 348 348 349 351 350 349 349 349 353 356 356 355 351 350 354 354 353 356 355 356 356 354 355 355 353 354 354 355 355 352 349 347 345 344 344 340 338 344 342 340 342 340 342 343 340 340 339 339 340 339 339 340
347 347 348 348 350 350 350 350 349 350 349 348 349 351 351 351 352 353 352 352 352 351 351 351 350 347 347 347 347 347 346 347 347 347 349 351 351 350 351 350 347 350 354 355 355 353 352 354 355 356 357 356 357 357 356 355 353 352 355 354 354 354 350 348 348 347 346 348 346 346 351 348 343 343 340 340 341 340 340 340 338 339 340 340 340
349 346 348 349 350 350 350 351 350 350 350 349 350 351 351 351 352 353 352 352 352 351 350 351 350 348 348 347 347 347 346 346 347 348 350 352 351 350 352 349 345 347 351 354 353 353 354 354 354 356 358 357 356 356 356 354 351 352 355 354 353 353 352 351 350 348 346 348 353 357 358 358 355 347 343 342 342 340 339 339 339 339 339 340 340
351 348 348 348 350 351 350 351 351 350 351 351 351 351 351 351 352 353 353 352 352 350 350 351 349 349 349 348 348 347 347 347 348 349 350 351 350 351 352 348 344 345 347 351 351 352 355 354 354 356 358 356 355 356 355 354 353 351 354 355 352 353 356 356 352 348 348 346 351 357 357 364 362 349 347 347 343 342 342 340 340 340 341 340 341
350 349 348 347 350 351 351 352 352 351 351 351 352 352 351 351 352 353 352 352 352 350 351 350 349 350 349 349 349 348 349 348 348 349 349 349 348 350 352 347 347 349 347 349 351 353 355 355 356 357 357 356 356 357 355 354 354 353 354 355 354 355 356 356 353 350 350 346 346 350 348 354 354 350 358 357 347 344 345 345 343 340 342 343 343
350 348 348 348 349 351 352 352 352 352 351 352 352 352 351 351 351 352 352 352 352 351 351 350 351 351 349 349 349 348 350 349 348 349 348 348 347 350 351 348 350 354 351 352 353 353 354 355 357 358 357 356 356 357 355 354 353 353 357 357 357 358 355 356 355 351 351 349 347 347 345 347 345 348 360 362 359 353 344 344 344 342 343 344 344
355 350 346 347 349 351 352 352 352 352 351 352 352 353 352 351 351 352 352 351 351 352 352 350 352 353 351 350 349 348 349 349 349 349 348 348 347 350 351 349 352 355 353 353 353 354 354 355 356 356 357 357 356 355 355 354 352 352 358 358 357 355 352 356 356 351 352 352 351 350 347 348 346 345 349 352 361 365 358 350 345 345 345 343 344
358 353 347 346 349 351 351 351 352 352 352 351 352 354 354 352 352 353 351 352 351 352 354 351 352 355 354 353 351 350 350 349 349 348 347 348 347 349 352 350 351 353 353 353 354 355 355 355 355 355 357 358 357 355 354 355 353 354 357 357 355 353 354 358 356 353 356 355 353 352 349 349 347 345 343 344 352 362 368 362 351 350 350 345 345
357 354 347 345 349 351 351 351 352 352 352 351 351 355 355 353 354 353 351 353 352 351 354 353 353 356 356 354 352 352 352 350 350 348 346 348 348 348 351 351 350 352 354 354 356 358 356 356 356 355 357 358 356 355 355 356 356 357 358 356 355 356 358 358 355 356 357 354 352 351 351 351 349 347 345 345 348 351 360 361 352 350 353 349 347
358 353 348 345 347 350 351 351 352 352 351 351 352 356 356 355 355 353 351 354 352 350 354 355 354 355 354 353 352 352 352 350 350 348 345 347 349 348 350 351 350 352 354 354 356 358 356 356 358 357 356 356 355 355 357 357 358 358 356 355 356 357 357 357 356 358 357 354 353 352 352 352 349 349 348 346 348 349 355 359 353 350 351 348 347
356 354 354 349 346 348 350 352 352 352 351 351 353 356 357 356 357 355 353 356 353 350 355 356 355 355 353 353 352 349 351 350 350 350 346 347 349 349 350 352 350 351 353 353 354 357 357 356 357 357 355 356 356 355 356 357 357 356 355 355 356 356 357 355 355 356 356 356 355 353 354 353 349 349 347 345 346 347 351 354 351 350 352 349 346
358 356 356 352 349 346 347 351 352 351 352 351 353 356 357 357 357 356 355 357 354 352 355 356 355 355 353 353 351 348 349 349 349 351 349 348 350 351 352 353 352 352 352 353 353 354 356 356 356 356 356 356 356 356 356 357 356 355 356 357 357 358 358 357 357 358 358 357 355 353 353 353 351 349 347 346 346 346 347 349 348 348 349 348 348
359 355 353 355 354 349 347 350 351 351 351 352 353 357 358 357 358 357 355 357 356 354 355 356 355 355 352 353 352 347 349 350 348 350 351 350 351 354 354 353 352 352 352 352 351 351 353 354 353 354 355 356 357 358 357 357 357 357 357 358 358 359 359 358 359 358 358 356 353 353 353 352 353 352 350 348 347 346 346 346 348 349 350 349 349
361 356 356 358 356 351 349 349 350 350 351 353 354 355 358 358 358 359 356 357 358 356 356 356 355 355 353 353 352 348 348 350 348 349 351 351 352 354 355 353 352 352 351 350 350 349 350 351 350 351 354 355 356 358 357 357 357 357 357 358 358 359 359 358 359 358 358 356 354 352 353 352 352 352 352 351 348 347 346 346 348 355 360 359 356
364 361 360 359 355 353 351 349 350 351 351 353 354 355 357 358 359 359 358 358 359 357 356 356 355 354 354 353 352 350 349 351 350 349 350 351 352 353 353 353 351 350 349 348 349 348 349 350 350 349 351 354 355 357 357 357 357 355 355 355 356 357 358 357 357 357 357 356 355 354 353 352 352 352 352 352 350 349 349 347 348 353 358 363 369
365 364 363 360 355 353 352 349 348 350 350 352 354 355 357 358 358 360 359 359 360 359 357 357 355 354 355 354 353 353 352 351 352 352 351 352 352 352 352 351 350 350 348 348 349 348 347 349 349 348 349 351 353 354 355 355 357 358 355 354 353 353 354 357 357 356 356 358 358 356 355 354 353 354 354 354 353 351 351 350 350 351 352 360 373
364 366 365 361 355 352 352 351 351 349 350 353 355 356 359 359 357 358 360 359 360 360 359 357 356 355 355 355 354 355 355 353 353 353 353 352 352 351 351 349 349 350 350 348 347 347 347 347 348 349 349 350 351 352 353 353 356 359 358 357 357 355 355 357 358 357 357 359 358 356 356 354 353 353 354 354 353 353 353 350 350 351 352 357 364
362 362 361 359 356 354 354 354 353 351 349 353 355 356 358 358 356 355 357 358 358 359 360 359 357 356 355 355 355 356 356 355 354 354 353 352 351 351 350 349 347 348 349 348 347 347 347 347 347 349 350 351 351 351 352 353 354 356 357 359 359 359 358 357 357 357 357 357 357 355 354 352 353 353 354 355 354 354 354 352 351 351 352 354 353
359 357 356 357 357 357 356 354 355 352 348 349 351 354 356 356 354 354 356 357 355 355 356 357 358 357 356 356 356 357 357 356 355 353 353 351 350 349 350 349 347 346 347 347 348 347 347 347 347 347 349 351 352 352 352 354 354 354 355 356 358 359 359 357 356 355 355 357 357 357 356 354 355 356 356 357 356 355 354 352 352 351 352 354 353
356 356 356 356 356 356 354 353 355 354 350 348 349 351 352 352 352 353 356 357 356 354 353 353 355 357 358 357 357 357 357 357 356 354 353 351 349 349 350 349 348 348 347 346 346 347 349 349 349 348 347 349 351 352 352 353 353 354 354 355 356 358 359 358 357 356 356 357 358 358 357 356 355 356 356 355 355 354 354 352 352 352 352 354 355
351 352 354 354 353 353 354 353 354 355 355 353 352 352 352 352 352 351 354 356 355 354 354 353 353 355 356 357 357 357 357 357 356 355 353 351 349 349 348 348 348 348 348 347 346 346 347 349 351 351 350 350 350 351 352 353 353 354 354 355 356 356 357 358 358 359 358 359 359 357 355 354 355 355 355 355 355 355 355 354 352 353 353 354 354
347 349 351 352 351 350 352 354 354 356 358 356 353 354 355 353 351 349 351 354 354 353 352 352 354 354 355 355 355 356 356 357 356 354 353 352 350 350 349 349 349 349 348 347 347 346 346 347 349 352 353 353 352 351 350 351 353 353 353 354 355 355 356 357 358 358 357 358 359 357 356 356 356 356 356 356 357 356 355 354 353 353 355 354 354
348 349 351 351 350 348 351 354 355 355 355 353 351 352 354 354 352 349 349 351 353 353 351 351 353 353 354 354 354 354 354 355 354 353 352 351 350 350 349 349 350 349 349 349 348 347 346 345 347 349 351 353 353 352 351 351 351 352 353 353 355 356 356 357 357 356 356 356 358 358 359 359 358 358 358 357 357 356 355 354 354 354 354 354 355
347 348 349 351 351 350 352 354 353 351 350 350 349 348 349 351 353 352 351 352 352 351 350 351 352 353 354 354 353 353 354 354 354 352 351 350 350 349 349 349 349 349 349 349 349 349 348 347 347 347 348 351 352 352 352 352 351 351 351 353 354 355 355 356 357 357 357 357 358 359 358 358 358 358 358 357 357 356 355 355 354 354 354 354 355
345 346 347 349 350 350 351 351 349 348 348 348 348 348 348 349 352 354 355 355 354 352 350 350 352 353 353 352 352 352 353 354 354 353 351 350 350 349 349 349 348 349 349 349 350 350 350 350 350 350 349 350 351 350 350 352 351 350 351 352 353 354 354 355 356 356 357 357 358 358 358 357 358 357 357 357 357 356 356 356 355 355 354 355 356
346 346 347 349 349 349 350 349 348 348 347 347 347 347 348 349 351 354 357 357 356 355 352 352 353 353 352 351 351 351 351 351 351 351 351 352 351 350 350 350 349 348 349 351 351 350 350 350 350 351 351 351 352 351 350 350 351 351 352 352 353 354 354 355 356 356 356 356 355 355 356 357 358 358 357 357 357 357 355 355 355 355 355 355 355
345 346 347 348 348 347 348 348 348 349 347 347 347 346 346 347 348 350 354 358 358 356 354 355 356 356 354 351 350 351 350 350 349 350 350 350 349 350 349 349 349 347 348 350 351 350 349 350 350 350 351 353 353 353 353 352 352 352 353 354 354 355 354 355 356 356 356 355 355 355 355 357 358 358 357 356 356 355 354 354 356 356 357 357 356
344 345 346 347 346 346 347 346 347 348 348 347 348 348 347 346 347 349 352 355 357 357 357 358 359 359 357 355 353 354 353 353 352 353 352 349 348 349 350 350 350 348 347 349 351 351 349 349 350 350 350 351 353 353 355 354 354 354 355 355 355 354 354 354 354 354 353 354 355 355 355 355 357 357 356 355 354 353 353 354 355 356 357 357 356
344 344 345 345 345 345 345 345 346 346 347 348 349 350 350 348 349 351 352 350 350 353 355 356 357 358 359 357 356 356 356 355 355 355 354 353 351 350 350 351 350 349 348 349 352 352 350 349 349 348 349 349 352 355 355 355 355 355 355 355 355 355 354 354 353 353 353 354 353 354 354 355 355 355 355 353 353 353 353 353 354 355 355 356 355
345 345 344 344 344 344 343 344 344 345 347 348 349 350 349 349 349 351 351 349 348 349 350 352 353 355 356 356 357 357 357 356 355 355 354 354 353 352 353 354 353 351 351 353 354 353 352 350 350 349 349 350 352 355 356 356 356 356 355 354 354 355 355 354 353 354 355 355 354 355 357 356 354 353 353 353 352 352 352 352 352 353 353 354 354
344 344 344 344 344 344 343 344 344 345 346 347 349 349 349 349 349 349 351 351 350 349 348 349 351 350 351 353 354 355 355 354 354 354 354 353 353 354 355 356 356 354 354 356 356 356 356 355 353 352 351 351 353 355 355 355 354 354 354 354 354 354 355 355 354 354 355 355 355 356 359 358 355 353 353 354 353 353 353 353 353 352 352 352 352
343 344 344 344 344 343 343 343 344 345 347 347 348 348 348 349 348 348 349 349 349 348 346 347 347 346 347 350 351 353 354 353 353 352 352 352 352 353 353 354 355 355 355 355 355 355 356 356 355 354 353 353 355 354 353 352 352 351 351 353 353 354 355 356 354 353 354 355 355 355 357 358 356 356 355 356 357 357 356 355 354 353 353 353 354
342 343 343 343 343 343 342 342 343 345 346 346 347 347 347 346 346 346 345 344 344 344 343 344 345 345 346 348 349 351 352 352 351 351 351 352 352 352 353 353 354 354 354 355 355 355 356 356 356 355 354 355 356 355 353 351 350 350 351 352 352 353 354 355 355 354 354 355 354 353 353 355 356 357 356 356 357 358 358 356 355 355 355 355 355
341 343 342 340 342 342 341 342 343 343 344 344 344 345 344 343 343 342 342 341 341 341 341 341 342 344 346 347 348 349 349 348 349 349 349 350 351 351 351 351 351 352 352 353 354 354 355 355 355 354 355 355 356 355 353 351 350 350 350 351 352 352 352 354 356 356 356 355 354 353 353 355 356 357 357 356 358 360 360 359 358 357 357 357 356
339 341 340 339 340 341 341 341 341 342 342 341 341 341 341 340 339 338 337 338 338 339 339 340 341 342 343 344 344 345 345 345 346 346 346 347 348 348 348 348 349 349 349 350 351 352 353 354 354 354 354 353 352 353 353 351 351 351 351 351 352 352 354 356 357 358 357 357 357 357 357 357 356 356 356 357 357 359 359 359 359 357 357 357 356
336 338 339 338 337 339 339 338 338 339 340 338 337 337 337 336 335 334 334 334 335 337 338 338 338 339 340 341 341 342 343 343 343 344 344 345 345 345 346 346 346 346 346 346 347 348 349 350 352 353 352 349 348 349 350 350 350 351 351 351 352 354 356 357 357 358 358 358 358 357 357 356 355 354 355 355 355 355 356 357 356 355 354 354 355
333 335 337 336 336 336 337 336 335 335 336 336 335 334 333 333 333 333 332 333 334 336 337 336 336 337 338 340 340 341 342 342 343 344 344 344 344 345 344 343 342 342 342 342 342 343 345 347 348 348 347 345 343 343 345 348 349 350 350 351 353 355 356 356 356 356 355 355 354 355 354 353 353 353 352 352 352 351 352 353 352 352 351 351 352
331 331 332 334 335 335 334 335 333 332 333 334 333 332 332 331 330 330 331 332 334 336 336 336 336 336 336 338 339 340 341 340 341 342 343 344 344 344 342 341 340 339 339 338 339 339 339 341 342 341 339 339 339 338 339 341 345 347 348 350 353 354 353 354 354 353 353 351 349 350 350 350 350 349 348 348 348 348 348 347 346 346 346 346 348
330 329 330 332 334 334 333 334 333 332 333 333 332 332 332 330 329 328 329 331 333 335 337 337 336 336 336 336 337 338 338 339 339 340 340 341 343 343 341 339 338 337 336 336 336 336 334 333 335 335 335 335 335 335 336 336 339 343 344 346 349 351 350 349 349 349 350 349 348 346 345 343 344 343 342 341 341 340 339 337 337 336 336 338 340
327 327 329 331 332 332 332 333 333 333 333 333 332 333 332 331 330 329 329 329 329 331 334 336 336 336 336 337 337 337 337 337 337 337 337 338 339 339 338 337 336 336 335 334 334 333 332 330 329 331 332 331 330 331 333 333 334 338 339 338 340 344 344 343 342 342 343 344 343 340 337 335 335 337 335 333 333 333 334 333 334 334 334 335 336
322 324 328 329 330 331 332 332 333 332 332 332 331 331 331 331 331 330 330 329 328 328 330 332 333 334 335 336 336 335 336 336 336 336 335 336 336 336 335 335 335 335 334 331 330 329 329 327 326 327 327 326 325 326 328 328 329 331 334 334 334 336 337 336 336 336 337 338 335 332 333 332 327 327 330 332 333 335 336 335 335 335 336 336 337
321 322 325 326 328 330 331 332 333 333 332 331 331 331 331 330 331 330 329 327 326 327 328 329 331 332 333 333 331 330 331 332 333 335 334 334 335 335 335 334 333 333 332 330 328 326 324 322 321 321 320 319 319 319 320 321 321 321 324 327 329 331 331 332 333 332 331 330 326 323 327 328 323 325 333 337 337 338 336 335 335 335 335 336 338
322 322 323 324 326 328 330 331 333 333 333 332 331 332 331 330 330 330 329 327 325 324 324 325 326 326 328 329 329 327 326 326 327 330 332 333 333 333 334 334 333 332 331 330 329 328 325 323 322 320 319 317 317 316 315 315 315 315 315 317 319 320 322 324 326 325 324 323 320 318 321 324 326 332 338 339 338 337 335 333 335 335 334 336 337
324 323 323 323 324 326 328 330 331 332 332 333 332 332 332 332 331 330 330 329 328 325 323 323 322 321 321 324 326 326 326 324 322 322 325 330 332 332 332 331 331 330 330 329 328 327 327 327 326 324 323 321 319 318 316 315 314 313 313 313 313 314 315 315 318 319 318 318 318 319 323 328 331 336 339 338 337 335 333 332 333 333 333 335 335
325 325 325 324 324 324 326 327 329 330 331 331 332 332 332 332 331 331 331 329 328 328 326 325 324 322 320 318 319 320 321 321 319 317 317 320 325 328 329 329 329 329 328 327 326 325 326 327 328 327 326 324 322 321 320 319 319 317 315 313 314 315 316 317 318 318 316 316 319 324 330 333 335 338 338 336 334 332 331 332 332 332 332 332 332
326 325 325 324 324 324 324 325 325 327 328 329 331 332 333 333 332 332 331 329 328 328 328 327 326 324 322 320 317 316 317 317 316 316 316 314 315 318 321 324 326 327 327 326 325 323 323 324 325 325 324 323 323 323 322 321 322 323 323 322 323 324 323 322 321 322 323 325 329 333 336 337 337 337 335 333 331 330 330 331 331 331 331 331 330
329 328 328 327 326 325 324 324 324 325 325 326 328 330 331 333 333 332 331 329 327 325 326 327 327 326 325 324 321 321 321 320 318 316 316 315 314 313 314 316 318 321 322 322 320 319 318 317 317 318 319 321 323 323 322 322 322 323 325 327 329 330 331 330 329 330 332 334 335 336 336 336 335 334 332 331 330 329 329 329 329 329 330 330 329
331 331 331 330 329 328 327 326 326 325 325 325 326 327 328 329 330 330 329 328 326 324 324 325 326 327 326 325 324 324 324 324 323 320 317 316 316 315 314 314 315 315 317 316 316 316 315 314 313 313 315 319 322 323 322 323 323 324 325 327 329 330 331 332 332 333 333 333 333 333 333 333 333 332 331 331 330 329 328 328 327 328 328 328 328
331 331 331 331 331 331 330 329 328 328 328 328 327 327 328 328 328 328 326 325 325 325 325 324 325 326 326 326 326 327 327 326 326 324 321 319 317 316 316 316 315 315 315 316 316 316 316 314 313 312 313 316 320 323 323 323 325 325 326 328 329 329 330 330 330 330 331 331 330 330 330 329 329 329 329 330 330 329 328 327 326 326 326 326 326
331 331 332 331 331 331 331 330 330 329 329 329 329 329 328 328 328 327 325 323 323 323 324 324 324 325 326 326 326 327 328 328 327 327 325 322 319 318 317 317 317 317 317 317 317 317 317 315 313 312 311 313 318 322 324 325 326 326 326 327 328 328 328 328 327 327 327 327 327 327 327 327 327 326 326 327 328 328 327 326 325 325 324 324 324
Wind_Speed
10 15 18 18 17 20 19 17 18 21 24 25 26 26 26 27 26 25 24 22 21 21 23 23 21 20 19 18 18 20 22 22 21 21 21 20 18 17 16 16 17 14 10 9 9 10 9 8 8 7 6 5 4 5 5 4 2 4 4 3 5 8 9 7 9 9 4 4 4 9 8 7 8 8 8 10 11 11 13 12 14 16 15 16 14
8 12 18 18 18 21 20 17 18 21 25 26 25 26 27 27 26 26 25 23 22 22 22 21 20 21 20 19 20 21 22 21 21 21 20 19 18 18 16 16 18 16 13 11 9 9 9 8 8 7 6 5 4 4 5 5 4 5 3 4 6 8 9 7 9 8 2 3 2 5 6 7 9 10 8 9 9 6 6 3 4 9 7 10 16
7 8 14 17 17 21 20 18 19 22 24 25 25 25 26 25 25 26 26 24 23 23 23 20 19 19 17 18 21 22 21 21 20 20 19 18 19 19 16 17 19 18 15 11 9 10 9 8 8 7 6 6 5 5 6 5 6 5 3 6 5 6 8 6 7 9 9 8 3 1 2 4 6 6 1 2 4 2 2 1 2 1 2 2 10
7 7 11 15 16 19 19 18 20 23 22 23 26 25 25 25 24 25 25 24 23 23 22 21 21 20 17 15 18 20 18 18 19 19 20 20 20 19 17 17 18 19 16 12 11 9 8 8 8 6 6 6 7 6 6 5 5 4 2 4 3 5 5 4 5 8 12 10 3 1 1 2 1 3 2 5 4 2 1 2 1 4 4 2 5
6 6 8 13 15 17 19 18 20 23 21 22 25 24 25 26 24 24 24 23 23 22 20 20 21 21 21 19 19 21 19 19 21 21 22 22 21 20 18 17 17 18 16 13 10 8 7 8 8 8 6 6 7 6 6 6 5 5 5 4 2 3 5 6 6 6 10 11 4 2 2 1 1 3 2 4 5 5 3 3 3 2 4 2 1
4 6 7 12 16 17 19 19 20 21 20 21 23 23 25 27 25 23 23 23 22 21 20 19 18 18 23 23 21 23 22 22 23 22 23 23 21 20 18 16 16 15 13 12 11 10 9 8 8 8 6 5 6 5 5 5 5 5 6 5 2 1 3 6 7 6 8 11 9 6 5 3 2 1 1 1 5 4 4 5 1 4 4 4 2
7 5 6 11 16 17 17 18 20 21 21 22 21 22 26 27 25 24 23 22 22 21 20 20 18 18 22 22 21 23 22 22 23 22 22 22 21 20 17 17 17 14 13 12 12 11 9 7 8 8 6 6 6 5 5 5 4 4 4 5 4 1 1 5 7 7 8 9 10 8 6 4 2 2 2 1 2 3 5 7 4 3 4 4 3
6 8 6 9 15 17 18 18 19 21 21 23 22 23 28 27 25 24 22 21 23 21 20 21 20 19 18 18 20 23 20 21 23 22 21 22 22 20 18 17 17 15 15 13 13 12 10 9 9 8 7 7 6 5 5 5 5 6 5 4 4 2 1 4 5 6 7 8 10 7 5 7 5 2 2 2 2 0 4 6 4 4 5 4 4
4 6 9 6 16 20 20 20 20 21 21 22 23 25 28 28 25 24 22 22 23 21 19 21 22 20 18 17 19 19 19 20 21 22 21 22 23 20 18 19 16 16 16 14 13 13 13 12 10 10 8 7 8 7 6 6 6 7 6 4 4 3 0 2 2 5 6 5 7 7 6 7 4 3 3 2 3 1 2 3 4 7 8 7 6
5 4 10 8 15 22 21 21 20 20 21 20 22 27 29 28 26 25 23 22 24 22 20 22 22 21 19 18 19 18 18 18 18 22 20 19 23 20 19 21 16 15 17 14 14 13 12 12 11 11 9 8 9 7 6 7 6 6 6 5 4 4 3 2 2 4 4 3 5 6 8 7 3 2 3 2 2 2 1 3 6 7 7 9 9
6 6 8 10 11 21 22 21 20 20 22 20 22 27 29 29 27 26 25 22 24 24 21 21 22 23 20 19 20 19 19 19 17 21 20 18 23 20 19 22 18 16 17 15 15 13 12 12 11 10 9 8 8 7 5 6 7 6 6 6 5 4 4 5 4 3 3 4 5 6 8 9 7 4 3 3 1 2 1 3 6 7 7 8 9
6 6 5 9 9 17 18 20 22 21 21 21 24 27 28 29 27 27 26 22 23 25 23 22 22 22 21 19 21 20 19 21 18 19 20 18 20 19 18 21 20 18 17 16 16 15 12 12 11 10 9 8 9 8 7 7 8 8 7 7 6 4 4 5 5 4 4 5 5 6 7 7 6 5 4 4 3 2 2 3 6 6 5 7 10
5 4 2 6 6 11 15 19 22 21 21 22 24 26 26 28 27 27 27 24 24 26 24 23 22 22 22 19 21 21 19 22 21 18 20 19 18 19 18 20 20 19 19 18 17 16 15 14 13 12 11 10 10 9 9 8 8 8 6 6 7 6 4 4 4 5 5 5 6 7 7 7 7 5 4 3 3 3 3 4 6 6 5 7 9
5 4 3 3 5 1 11 20 23 21 22 22 24 27 26 28 28 27 27 24 24 27 25 25 22 21 23 19 20 23 20 21 23 20 19 20 19 18 18 19 21 19 20 20 18 16 16 15 14 13 12 12 11 11 11 10 9 8 6 6 7 7 6 5 5 6 6 6 6 7 7 7 7 6 6 5 5 6 7 7 6 4 5 7 7
4 4 2 0 5 9 3 16 24 22 22 23 24 26 26 27 28 27 27 25 24 26 25 25 24 21 22 20 18 22 20 19 23 22 19 20 19 18 17 18 20 19 18 18 17 16 17 17 15 14 14 14 13 13 14 13 12 11 10 10 9 8 6 6 7 7 7 7 7 7 7 7 6 6 7 7 6 7 9 9 7 4 3 4 3
2 3 1 3 5 12 13 5 19 20 23 24 24 26 26 27 28 26 26 25 24 26 25 25 24 22 22 21 18 20 20 18 20 20 19 19 20 19 18 18 19 19 18 17 17 17 17 18 17 15 15 15 15 15 14 14 13 12 12 12 12 11 8 7 8 8 8 8 7 7 8 8 7 7 7 7 7 7 7 7 9 7 3 2 2
2 2 1 4 6 10 15 10 6 16 22 22 24 25 23 24 27 26 27 25 22 24 24 24 24 22 21 21 19 19 19 18 18 18 18 19 19 19 19 19 19 18 18 18 18 17 17 18 18 17 16 15 16 16 15 13 12 11 12 12 13 13 11 9 9 9 9 9 8 8 9 9 6 5 5 5 7 9 6 5 8 7 5 2 0
4 3 3 6 9 11 12 13 9 10 18 18 21 20 15 15 15 16 21 23 23 23 23 23 24 22 21 21 20 19 19 19 18 17 17 18 18 18 19 19 20 19 19 19 19 18 17 16 17 18 17 16 15 15 14 13 13 13 12 11 11 11 12 11 11 11 11 10 9 9 10 10 8 6 5 6 7 9 9 6 7 8 7 6 4
4 4 5 6 9 11 10 13 13 8 11 12 15 17 16 15 11 9 12 14 15 18 21 22 23 22 21 20 21 19 18 18 18 17 18 18 18 20 20 20 20 19 18 20 20 20 20 17 17 18 17 16 17 16 14 13 14 14 14 13 12 11 12 13 12 12 13 12 11 10 10 10 10 8 7 7 8 9 10 9 9 10 9 9 8
4 3 4 4 7 11 12 12 13 9 9 10 10 14 17 16 13 12 13 15 12 9 12 16 19 20 19 19 20 20 18 18 17 18 19 19 19 19 20 21 20 19 18 19 19 21 23 21 19 19 17 16 17 17 16 15 15 15 15 15 14 13 14 15 14 13 12 11 11 11 10 9 8 8 8 8 9 10 10 10 13 14 13 11 10
4 3 3 3 6 12 14 12 12 11 8 6 6 10 15 15 13 11 13 21 21 13 11 11 13 16 17 18 19 19 19 18 17 18 19 20 19 19 19 20 19 19 19 19 18 19 21 21 20 21 20 18 18 17 17 17 17 16 16 15 14 14 16 16 16 15 12 12 13 12 12 10 8 8 8 9 10 10 10 11 12 11 8 8 9
6 6 5 5 6 9 13 13 14 15 11 7 5 8 13 13 12 12 13 19 19 16 16 15 13 14 14 17 19 19 19 18 17 15 14 15 15 16 18 18 18 19 20 19 19 18 18 20 21 21 20 18 18 19 19 19 18 18 18 17 16 15 16 15 16 16 14 13 15 15 14 12 10 9 9 10 12 11 10 10 8 6 3 3 6
5 6 6 7 9 7 10 13 15 19 19 13 8 7 10 12 12 12 13 15 14 13 14 14 15 14 11 11 15 17 18 19 18 14 12 12 11 10 12 13 14 16 18 20 21 21 19 19 20 21 20 19 18 19 21 22 20 20 20 20 18 16 15 15 16 16 16 15 14 14 13 12 11 11 11 11 10 9 8 7 5 3 2 2 2
5 5 6 5 6 6 8 11 13 17 20 18 14 11 8 5 6 10 12 15 15 14 13 12 14 15 12 8 10 15 18 20 21 18 15 13 12 11 10 12 13 11 13 15 18 21 23 23 21 20 20 20 19 19 21 23 23 21 20 20 19 17 15 16 17 18 18 16 14 14 13 12 12 12 13 12 10 9 8 6 5 6 4 3 1
7 7 7 5 3 5 9 11 12 13 16 18 17 14 12 12 7 2 8 12 13 13 13 12 12 14 14 11 11 14 16 17 19 19 18 15 13 11 10 12 14 15 16 15 14 16 19 22 24 24 22 21 20 18 18 21 23 22 20 18 18 18 16 16 16 17 18 17 16 15 13 13 14 14 13 12 11 11 10 9 8 7 6 5 4
7 8 7 6 5 8 11 12 11 10 11 15 15 13 11 8 9 8 4 5 7 9 12 11 10 11 13 13 13 14 14 13 14 16 17 15 12 11 10 11 12 14 15 14 13 16 17 18 19 23 25 23 22 20 18 16 18 20 19 18 17 18 19 18 18 18 18 18 16 14 14 14 14 14 13 11 11 11 10 9 8 6 6 6 5
5 6 7 7 7 9 12 12 10 7 6 7 9 10 10 8 7 8 5 5 4 5 9 9 7 8 11 12 13 12 13 12 12 12 13 13 12 13 13 13 13 11 8 7 11 15 17 17 17 20 23 23 22 22 21 19 18 17 17 17 17 18 19 19 19 18 16 15 14 14 14 14 15 15 14 12 12 11 10 10 8 6 5 6 6
6 6 7 7 7 8 11 13 12 10 9 8 5 4 3 4 3 2 4 7 6 4 5 5 4 5 8 9 9 8 10 10 10 10 11 13 14 14 14 14 16 16 12 9 11 13 16 17 15 19 22 21 19 19 20 21 20 19 17 17 17 16 14 14 14 14 14 15 16 15 14 14 15 14 13 12 12 12 11 11 9 6 6 7 6
6 6 6 6 6 6 9 13 14 13 13 11 8 3 2 5 6 3 4 6 7 6 6 5 3 3 4 5 5 5 7 8 8 8 10 12 14 14 14 15 16 18 18 15 12 12 17 20 17 16 20 21 20 19 18 18 18 18 18 17 18 17 15 13 11 12 14 16 16 16 14 13 13 13 13 13 13 12 12 11 10 9 9 9 9
6 6 6 5 6 7 9 12 13 13 13 12 10 6 1 4 4 1 1 2 4 5 6 6 5 3 3 2 2 2 3 5 5 6 7 9 11 13 13 13 13 15 16 14 10 9 13 16 16 13 15 20 21 20 18 18 17 17 18 17 17 18 18 17 13 12 13 14 15 15 13 13 14 12 12 12 12 11 11 12 12 13 13 14 14
5 5 5 5 5 7 9 10 11 12 11 10 10 10 6 1 2 2 2 3 2 3 2 3 4 4 3 4 3 2 1 2 3 4 5 6 7 9 11 11 11 11 11 10 7 6 7 10 11 10 9 14 18 18 17 18 18 17 18 17 15 16 19 19 16 12 11 11 12 13 12 13 12 10 10 11 11 11 11 11 12 13 14 16 17
5 5 4 4 5 6 8 10 11 11 10 9 10 11 10 5 3 5 5 3 4 3 2 2 1 2 3 4 3 1 0 1 2 2 3 5 6 7 8 9 9 9 8 8 6 4 4 6 8 10 10 12 15 15 14 16 17 17 17 15 13 14 16 18 18 15 13 12 12 13 11 9 8 7 8 10 11 12 12 12 12 12 13 14 16
4 4 4 4 4 6 8 9 10 9 8 8 11 12 12 11 9 9 8 9 11 11 7 2 1 3 2 2 3 2 1 2 3 2 2 3 4 5 6 6 7 8 9 8 6 4 5 6 6 7 8 8 10 10 10 12 14 15 15 13 13 13 14 16 18 17 15 13 12 13 12 9 10 12 12 11 11 12 13 13 13 13 14 14 14
2 3 4 5 5 6 9 10 11 11 10 10 12 14 14 14 14 13 13 13 14 15 14 11 8 4 3 3 3 1 2 2 3 2 2 2 3 3 3 3 5 6 7 7 7 6 7 7 5 4 4 5 7 8 8 9 11 12 13 12 13 14 13 13 15 16 15 13 12 13 13 12 13 14 13 12 12 14 15 14 14 15 15 15 14
2 2 4 5 5 6 8 11 12 13 14 15 14 15 17 17 17 17 16 16 16 17 17 17 15 12 10 8 5 4 4 2 2 1 1 1 1 1 3 3 3 4 5 5 6 6 6 5 5 5 7 8 8 8 9 10 11 12 12 12 13 14 14 12 12 12 12 10 9 11 12 13 13 12 12 12 12 13 14 14 13 14 15 15 15
1 1 4 6 6 7 8 11 12 12 15 16 15 16 17 18 19 19 18 17 17 18 19 19 18 16 15 13 11 9 8 6 5 6 7 7 6 5 6 6 6 6 6 6 6 7 6 6 6 7 9 10 9 9 10 11 12 12 12 12 11 12 13 12 10 9 8 8 9 10 12 12 12 12 12 13 13 12 13 13 13 14 15 16 17
2 3 4 6 7 7 9 12 13 12 13 15 16 19 20 19 20 21 20 20 20 19 19 20 20 20 17 16 15 14 13 12 12 13 13 12 11 12 11 10 11 11 10 9 8 7 6 6 7 8 9 9 9 9 10 10 10 11 11 11 10 10 11 11 10 9 9 9 10 10 11 12 12 12 13 13 13 11 11 12 13 14 14 16 18
5 4 4 5 7 10 11 11 13 13 13 13 15 17 19 19 19 20 21 21 21 21 20 20 21 21 20 18 17 17 17 16 16 16 15 14 15 16 15 15 17 17 17 16 13 10 6 2 1 1 2 5 4 4 6 8 9 10 9 10 10 10 10 10 9 8 7 7 6 5 7 8 9 11 12 11 10 9 10 10 11 12 13 14 16
4 5 4 3 5 10 11 10 12 14 14 14 15 17 18 18 18 19 21 21 20 19 20 19 19 20 19 18 17 17 17 18 19 19 18 17 16 16 17 18 20 20 21 20 19 18 16 13 13 13 9 5 4 5 3 3 5 7 7 8 10 9 8 7 4 2 2 2 2 2 2 3 4 5 6 7 7 8 9 10 11 11 12 13 15
3 3 4 2 4 9 9 7 10 14 14 15 16 17 17 17 17 19 21 20 19 19 17 16 17 18 18 16 16 17 18 19 20 21 21 20 18 18 18 19 19 19 20 21 20 21 21 20 18 16 14 11 9 9 9 9 5 2 4 6 8 9 8 7 7 6 6 5 3 2 1 1 1 3 5 7 8 10 11 11 11 11 12 13 16
3 2 4 3 4 8 10 6 8 14 16 16 17 18 17 17 18 19 19 18 19 20 19 18 17 16 15 15 16 18 19 20 21 21 22 22 20 20 19 18 19 19 20 20 20 19 20 21 20 20 18 16 15 14 13 14 12 9 6 5 6 8 8 7 9 10 10 9 7 5 4 4 4 5 7 9 10 11 11 11 10 10 11 13 16
4 5 8 8 7 11 13 10 10 15 17 17 19 19 19 19 19 19 17 15 16 17 18 19 18 16 15 15 16 17 18 19 20 21 22 22 21 21 20 19 19 20 20 21 20 20 21 21 22 21 20 18 18 18 17 17 17 15 11 11 11 10 8 7 8 10 11 9 7 5 5 6 8 8 8 9 9 9 10 11 11 11 12 13 15
6 8 12 12 12 14 15 12 13 16 17 17 18 18 18 19 19 17 16 15 15 14 14 15 16 17 17 17 18 19 19 19 18 19 20 21 20 20 20 20 20 21 21 21 20 20 22 22 21 20 19 18 18 18 18 18 18 17 15 15 14 13 11 8 7 8 9 7 6 8 7 6 6 6 6 6 8 9 11 12 12 13 13 12 12
10 12 14 13 13 15 15 14 14 15 14 14 16 16 16 17 17 15 14 14 14 14 14 14 15 17 17 17 18 19 20 21 20 19 19 20 19 19 19 19 19 19 19 19 18 18 19 19 19 19 19 18 17 17 17 16 15 14 15 16 15 13 12 11 11 10 10 8 7 8 8 6 4 4 5 7 8 10 12 13 12 13 13 12 12
14 14 14 14 14 14 14 14 13 13 13 14 15 15 14 13 13 13 13 13 12 13 15 16 17 17 17 16 16 16 17 19 21 21 19 18 17 18 19 19 18 18 18 17 17 16 16 16 15 16 17 17 16 15 14 14 13 13 13 13 13 12 11 11 11 10 9 8 6 6 7 6 3 4 6 8 9 11 12 12 12 13 13 13 14
14 15 15 15 15 15 14 14 13 12 13 14 15 16 15 12 11 10 11 11 11 12 12 13 15 16 17 18 19 18 17 18 19 21 21 19 17 17 17 17 17 17 17 16 15 15 15 14 14 13 14 15 16 16 15 14 13 13 12 12 11 11 10 10 9 7 6 5 5 6 8 7 6 6 9 10 11 12 13 13 13 14 15 15 16
14 14 15 16 16 16 15 16 15 14 14 13 13 14 14 12 11 10 10 9 10 11 12 12 12 13 15 17 20 20 20 20 19 19 20 21 20 19 18 17 16 16 16 16 16 16 16 15 15 13 13 14 16 16 16 16 16 15 14 14 14 15 14 12 11 10 9 9 9 9 10 11 12 12 13 13 13 14 15 15 16 15 15 15 16
15 16 16 15 15 15 15 16 16 15 15 14 13 12 11 10 9 9 10 10 10 11 13 13 12 11 11 13 15 16 17 18 18 18 19 19 20 21 21 20 18 17 17 16 16 16 16 15 15 14 14 15 17 17 17 17 17 17 17 16 17 19 19 17 17 17 16 17 18 17 17 16 16 16 15 15 16 18 18 18 18 17 17 17 17
16 17 17 16 15 14 14 15 14 14 14 14 13 12 11 10 9 9 11 13 12 12 13 14 15 13 11 11 10 11 12 13 14 15 16 17 17 18 19 19 18 18 17 17 17 16 15 15 15 15 15 16 16 16 16 16 17 18 18 18 19 20 21 21 20 20 20 21 22 21 20 19 17 16 15 15 16 18 19 20 20 19 19 19 19
15 16 15 15 15 14 14 14 13 12 13 12 12 12 11 10 10 10 12 14 15 14 13 14 15 15 13 11 10 8 8 8 9 9 11 13 13 14 15 15 15 15 15 15 15 15 14 14 15 14 14 14 15 14 13 14 16 17 17 18 19 20 20 19 18 19 20 21 21 20 20 19 17 16 15 14 14 15 17 18 19 20 20 21 21
15 14 14 15 15 14 14 13 13 12 12 11 12 12 11 11 10 10 12 14 14 13 12 11 11 13 13 12 11 10 8 7 6 4 5 7 9 9 10 11 11 12 12 12 13 14 14 14 14 14 13 12 12 13 12 13 15 16 16 17 19 19 19 18 17 18 20 21 20 19 18 17 17 16 15 15 15 15 15 16 17 19 20 20 20
Wind_Direction
166 158 148 151 152 147 150 150 149 147 145 144 144 147 149 148 148 150 152 158 160 158 162 163 160 164 169 169 171 173 176 177 178 181 180 182 187 187 186 183 176 172 181 187 183 182 175 170 179 186 193 203 215 224 215 197 216 244 246 292 297 311 315 312 325 315 266 277 229 165 179 188 182 212 212 206 224 238 233 224 221 221 226 228 227
165 154 145 152 152 145 150 155 152 144 142 144 144 145 148 149 151 152 155 160 164 163 165 169 168 166 167 172 172 170 175 179 177 179 180 183 193 191 187 186 181 180 184 182 176 176 176 177 183 188 192 197 201 197 190 185 197 215 246 309 305 310 300 308 347 342 330 319 286 172 192 201 203 213 215 238 241 229 226 214 192 201 213 231 227
164 154 145 153 152 146 153 160 155 145 143 146 147 147 150 153 155 155 157 161 165 167 167 172 177 171 164 166 171 173 178 181 176 175 178 188 193 187 188 193 186 185 185 181 176 173 173 182 184 183 187 188 189 189 184 188 198 209 285 302 302 322 300 308 7 13 14 1 350 84 212 212 221 235 211 211 216 216 229 143 72 120 66 217 214
171 161 148 154 154 149 156 162 153 148 148 149 150 151 155 160 160 158 160 164 168 172 173 172 175 177 168 164 174 178 180 183 182 181 182 184 183 182 191 196 189 189 188 182 182 180 177 186 187 184 189 188 188 189 184 189 199 209 264 275 293 356 349 348 15 18 21 19 359 288 274 125 97 288 18 81 93 44 340 233 304 13 34 150 190
175 173 162 156 155 152 159 163 151 151 157 155 153 156 160 164 165 163 163 168 173 175 175 173 173 175 169 170 176 173 176 185 183 178 177 178 179 183 193 196 190 189 189 183 185 194 195 193 192 189 192 190 190 196 195 200 212 226 235 238 262 2 6 5 12 13 25 37 41 352 358 74 69 292 322 48 47 48 28 306 282 62 62 107 172
228 189 171 153 156 157 160 163 154 156 166 162 160 162 163 166 168 169 169 172 176 174 173 174 175 171 164 166 167 160 164 178 176 170 172 178 180 183 193 195 187 185 188 186 191 204 200 188 188 190 191 191 201 216 212 216 233 233 228 222 208 61 16 11 20 19 28 45 48 47 61 108 170 35 39 353 2 26 36 4 21 128 91 67 46
300 253 195 158 160 159 159 166 161 162 171 169 167 167 166 167 169 174 176 176 175 172 176 176 172 169 164 164 166 162 162 170 174 173 174 178 180 184 193 190 183 189 194 192 198 204 199 189 187 190 194 191 202 221 209 217 233 212 193 186 183 174 26 14 13 11 23 37 37 47 68 67 60 57 106 175 338 358 5 9 31 89 50 25 339
301 284 247 169 160 162 163 169 167 167 173 172 170 168 166 168 171 176 178 178 176 175 180 179 172 169 166 164 168 171 170 170 174 177 177 180 181 184 191 184 182 194 197 197 199 196 195 199 195 193 195 192 203 215 208 227 237 203 180 184 195 210 355 9 2 8 18 14 17 39 45 21 22 83 100 122 136 299 331 353 6 348 346 339 320
256 286 282 210 164 163 166 170 171 172 175 175 173 167 166 169 173 177 178 179 181 179 179 180 175 168 164 165 168 172 175 175 177 180 184 186 184 182 184 184 188 194 194 196 194 192 198 201 200 198 194 191 200 206 211 229 226 199 195 216 214 199 312 345 331 358 12 355 358 11 1 5 40 103 103 107 114 115 301 321 334 336 338 338 341
260 280 286 254 167 160 168 172 172 173 176 179 173 166 166 169 172 177 179 180 183 183 180 180 178 173 170 172 173 174 179 180 179 183 187 184 180 179 181 187 192 191 192 195 191 195 202 200 200 203 196 190 194 201 219 214 203 209 218 217 205 200 220 241 284 329 334 318 328 326 319 322 320 131 142 164 105 95 240 286 317 337 338 333 343
269 268 283 279 190 169 171 171 170 175 183 180 165 163 167 168 172 177 181 183 183 184 184 182 181 180 179 178 178 178 180 183 180 183 186 179 175 177 183 190 192 188 192 197 196 200 204 199 202 205 196 192 201 209 210 193 193 223 231 210 205 224 240 245 251 269 277 283 293 293 302 306 287 239 208 222 164 121 162 286 305 326 325 314 329
258 266 281 289 227 182 171 166 169 176 181 174 161 162 168 170 173 177 180 184 183 185 187 185 184 185 183 182 183 181 180 184 186 183 185 182 179 182 185 189 190 191 196 200 199 201 203 202 205 208 204 205 215 216 205 200 207 220 229 219 215 230 241 242 243 247 262 277 288 289 294 304 294 261 237 225 190 184 207 239 277 302 311 307 317
234 250 244 287 253 186 171 165 172 177 175 171 166 166 169 172 175 178 181 184 184 185 186 185 188 190 189 185 183 186 186 187 189 186 185 187 186 188 190 188 188 193 198 201 202 201 202 206 205 208 213 213 211 210 212 217 216 215 219 213 212 225 234 228 239 256 268 277 288 289 287 300 317 318 291 255 207 205 225 240 267 276 264 286 309
228 244 219 279 328 201 169 165 173 182 177 171 168 167 170 174 178 180 182 185 184 184 185 186 190 192 193 192 185 188 192 190 190 192 191 192 192 192 197 195 193 197 200 204 210 206 203 208 208 205 209 214 210 209 218 219 212 211 207 198 207 225 231 227 239 252 260 268 277 283 285 293 311 325 316 287 239 234 259 256 254 267 263 271 292
230 249 209 284 1 8 40 168 175 180 177 172 168 169 171 175 179 182 183 185 185 185 186 187 190 191 194 199 194 192 195 192 191 195 196 198 200 200 202 202 203 204 202 207 213 209 208 211 211 206 205 213 216 215 221 220 214 215 212 204 207 212 216 224 236 246 255 265 274 283 292 294 295 298 301 296 269 262 275 261 235 226 271 287 293
257 256 21 38 30 19 16 142 173 176 174 172 172 172 174 177 180 183 185 187 187 187 188 189 191 192 194 200 201 198 200 196 192 196 200 203 206 207 208 209 211 210 207 209 211 210 213 214 214 213 209 213 218 221 226 224 218 223 224 218 218 217 216 227 243 252 256 264 271 277 284 286 284 282 284 294 296 288 278 243 224 214 208 294 320
335 291 58 43 42 32 24 37 150 180 179 175 175 176 176 178 181 183 185 188 191 190 190 192 193 194 195 198 202 203 206 206 200 199 203 205 206 208 212 214 214 213 209 209 211 213 215 216 218 220 216 216 222 226 230 227 221 231 236 230 229 227 222 229 248 256 254 258 262 267 280 287 286 282 276 283 297 303 295 239 233 240 224 202 230
351 1 47 55 44 34 28 31 56 159 178 174 171 172 166 162 172 184 187 189 193 193 193 195 196 196 197 198 201 203 207 210 210 208 208 208 209 210 214 216 216 217 216 210 210 215 217 218 220 219 217 221 225 228 233 230 223 230 238 236 237 238 234 234 242 248 249 251 255 262 275 284 287 289 290 286 289 303 311 294 274 272 251 225 204
351 19 35 62 60 43 34 29 40 103 156 155 160 171 168 162 167 182 193 198 200 200 198 197 198 198 199 201 202 203 206 209 212 214 213 213 215 216 217 218 218 223 224 216 211 213 215 216 217 217 220 223 224 226 232 233 227 229 233 235 238 244 245 241 241 247 249 251 258 263 263 271 280 283 286 286 282 294 307 306 298 282 256 245 231
359 35 35 71 86 68 53 35 35 76 130 132 143 170 175 178 184 185 193 196 198 218 217 206 204 202 202 205 205 205 208 209 211 215 217 216 219 225 224 220 221 225 226 223 222 216 212 214 215 216 222 225 225 226 227 230 233 233 235 237 238 241 247 249 247 249 251 254 262 269 266 269 277 278 280 282 280 289 295 293 295 283 256 242 236
358 11 358 28 76 77 68 54 50 70 109 126 138 174 183 191 194 192 198 192 188 201 213 215 216 208 207 209 209 210 211 214 217 220 222 218 217 228 229 220 221 228 227 228 233 224 214 215 215 215 219 224 228 228 224 226 232 235 238 241 240 241 248 255 252 248 249 252 257 267 271 271 275 280 284 283 281 283 283 288 304 301 264 242 245
3 349 342 354 27 69 80 77 71 67 72 98 130 162 173 181 187 191 197 193 191 193 194 204 213 210 215 214 208 209 211 215 222 229 235 229 224 232 233 224 224 229 228 227 232 232 226 222 216 214 216 219 225 230 227 225 229 233 236 237 238 241 249 256 249 243 247 253 258 267 271 269 271 275 276 277 279 276 275 289 314 332 314 271 257
14 344 340 345 348 17 64 74 74 67 66 81 99 119 137 149 169 189 197 199 200 195 193 204 207 205 220 222 205 202 205 211 217 227 240 244 250 256 247 242 242 239 237 234 231 231 231 228 223 219 218 217 219 226 229 228 227 230 233 235 236 238 246 252 245 242 249 255 260 266 267 266 269 271 270 274 282 278 276 293 305 301 313 344 270
40 351 328 328 338 1 43 58 66 66 67 69 61 42 39 77 151 177 189 193 196 193 194 204 207 206 214 222 211 205 208 215 219 223 227 234 250 260 254 257 264 265 260 252 244 236 228 225 226 226 226 223 220 224 230 230 228 230 233 236 235 232 239 250 249 248 250 251 256 259 258 261 265 266 268 272 280 281 278 285 282 269 268 289 275
40 15 343 331 347 21 45 57 61 67 73 74 68 49 25 11 10 93 161 176 185 190 194 198 204 207 208 210 213 209 211 219 222 221 221 223 233 241 245 254 259 262 259 255 263 262 243 230 226 225 227 229 227 229 234 232 227 227 232 235 236 236 242 251 254 254 252 247 246 248 251 261 265 262 265 269 273 275 274 275 275 271 266 266 257
31 27 6 359 23 34 41 53 59 63 74 81 81 75 69 49 16 19 81 147 168 186 196 197 196 205 210 209 208 206 207 217 226 227 223 221 225 231 237 240 244 253 256 252 266 278 272 258 242 230 225 226 228 231 237 238 230 227 230 234 238 244 248 251 252 253 253 250 247 248 253 258 258 259 262 265 267 269 269 270 271 272 264 254 253
24 36 26 11 21 33 36 42 47 47 46 65 81 77 79 86 54 38 72 109 120 175 199 201 203 219 224 216 208 207 211 218 233 239 231 228 233 242 246 240 232 235 248 263 267 265 261 262 265 255 238 226 224 228 231 234 237 236 235 238 242 247 249 248 248 251 256 262 266 266 263 258 259 264 263 260 262 266 269 269 267 264 255 250 258
18 31 45 38 26 26 31 30 28 33 31 25 37 60 89 148 159 76 91 110 112 132 179 194 209 228 228 221 215 216 220 224 233 240 238 237 241 246 249 244 233 228 231 250 264 255 241 239 253 268 260 239 222 223 227 227 232 236 236 237 242 248 253 252 251 255 258 262 265 263 260 260 260 258 254 254 260 267 271 267 258 246 236 239 252
25 16 32 51 47 33 31 28 21 26 36 37 37 37 252 226 210 183 100 110 119 127 139 143 143 161 190 213 218 219 225 228 236 243 244 245 248 252 254 252 245 237 236 246 255 245 232 228 231 253 271 262 234 219 224 225 225 230 233 235 240 246 254 262 269 271 267 263 260 256 258 261 254 249 254 259 264 269 270 264 255 249 244 244 252
40 30 21 30 49 49 40 34 23 18 27 37 47 61 25 265 239 165 117 112 95 105 124 124 122 133 126 121 141 177 213 224 237 246 245 245 251 255 257 259 253 241 238 243 246 233 225 229 232 237 265 273 250 225 222 227 228 233 236 238 243 248 252 257 266 275 270 263 259 256 260 256 246 249 261 264 267 272 269 265 264 265 262 260 262
34 38 31 18 30 46 44 34 19 12 20 31 44 63 69 319 277 27 339 300 359 23 26 65 104 136 125 109 115 115 148 216 235 244 250 248 249 254 255 254 250 244 240 239 240 239 228 230 234 226 236 260 252 232 225 231 235 239 241 242 247 251 251 249 250 255 256 254 252 252 257 259 259 270 276 269 270 274 272 271 273 272 270 268 268
20 20 27 19 24 41 43 32 16 9 21 40 55 68 71 67 52 46 39 35 48 50 324 300 164 163 138 114 110 129 201 296 281 252 254 249 240 245 249 250 251 250 247 241 236 241 237 226 224 223 225 237 241 238 237 240 243 245 244 245 248 249 247 243 241 243 247 247 244 241 248 266 280 281 268 259 266 274 278 279 279 274 270 270 271
358 347 346 357 36 53 46 35 23 19 34 61 72 76 78 78 76 74 75 72 69 75 86 112 265 283 298 43 27 11 34 347 324 315 299 270 251 248 248 254 259 256 253 255 254 246 245 242 231 225 230 230 226 233 243 245 246 246 243 242 245 245 244 243 241 242 245 246 245 244 247 256 258 251 246 248 261 274 280 280 277 272 268 270 273
357 350 358 11 52 69 57 48 42 41 57 73 76 78 82 83 82 78 76 74 69 67 67 67 61 40 20 20 3 22 55 357 321 319 314 289 279 281 280 278 272 267 266 269 272 268 261 263 265 264 268 253 231 231 240 239 238 239 238 239 240 239 241 244 242 240 243 249 254 253 250 250 251 251 254 257 263 272 277 275 271 266 265 268 273
354 0 18 30 67 80 62 57 55 56 65 71 72 77 80 80 79 77 73 71 70 65 62 61 60 59 60 59 65 85 76 28 353 24 65 59 22 0 356 351 338 322 318 312 300 295 296 303 306 284 257 253 247 237 234 235 235 234 235 233 231 232 236 240 239 240 247 255 256 251 247 248 248 248 252 256 258 264 268 269 269 270 273 277 278
193 72 29 26 58 84 74 66 66 66 70 71 71 75 79 78 78 78 73 70 69 64 61 59 58 59 64 66 68 74 74 70 70 69 69 64 54 46 37 30 31 23 0 342 325 311 307 313 313 289 263 257 255 239 225 225 226 228 233 231 222 218 220 221 225 232 237 235 232 234 240 247 252 252 251 252 255 259 263 266 273 280 284 286 285
55 63 40 26 53 87 85 72 69 73 77 79 77 77 78 78 79 78 74 68 65 62 59 59 58 58 62 67 70 69 67 67 67 65 64 63 61 58 55 55 55 48 35 20 3 339 309 286 288 292 274 253 246 241 230 222 217 217 222 222 212 205 203 206 212 215 215 218 221 230 241 248 253 256 255 256 258 263 268 272 278 285 289 290 290
40 46 29 25 59 87 94 83 74 74 80 85 84 79 76 74 74 76 74 68 64 63 62 62 63 62 60 60 65 67 65 64 65 66 65 63 64 66 64 64 65 62 57 50 42 35 23 0 94 52 219 204 210 239 233 224 219 213 207 200 195 195 196 200 208 213 220 225 219 228 249 256 257 259 264 269 272 276 282 286 291 293 294 295 296
76 73 38 15 81 97 101 103 93 84 81 84 83 79 77 73 69 69 70 67 64 63 63 62 65 67 64 59 61 67 69 67 65 67 68 67 71 76 74 70 68 69 70 68 67 67 69 77 88 84 81 80 43 6 340 280 230 205 192 189 187 183 175 171 171 171 190 197 174 173 228 257 268 275 284 290 295 302 306 308 309 305 300 299 296
152 101 47 36 119 100 89 103 108 94 84 81 81 80 80 79 73 68 67 65 64 65 67 65 63 65 65 62 62 67 70 70 68 68 69 71 78 83 81 76 73 73 75 75 73 74 74 75 80 78 71 62 46 26 18 12 10 111 142 159 168 163 145 120 106 106 114 116 109 105 104 76 342 327 333 329 324 324 323 321 319 312 303 298 293
150 122 84 85 109 90 77 80 98 90 79 74 72 69 68 71 71 68 65 64 64 65 67 67 64 65 67 64 62 64 67 68 69 70 70 71 76 80 80 78 76 75 76 75 72 72 70 67 66 65 62 59 51 42 36 30 26 33 38 50 99 123 119 100 92 95 101 105 109 110 88 46 15 351 343 339 336 335 334 334 333 326 316 308 302
102 103 109 106 96 88 80 67 71 78 76 73 69 63 59 60 60 61 63 65 66 68 71 74 74 73 74 71 65 64 66 65 66 68 70 69 70 73 74 74 74 73 73 74 72 71 69 66 63 61 60 58 53 48 45 42 38 37 31 27 43 62 73 82 87 87 89 92 91 82 58 24 8 360 352 350 352 355 356 355 351 342 331 322 315
130 115 108 97 83 83 83 74 69 72 74 77 77 71 66 62 58 60 67 71 73 77 81 84 82 78 75 72 67 63 63 64 65 68 70 71 71 72 72 71 72 72 73 74 72 71 70 67 64 62 60 59 58 54 51 49 47 47 47 46 45 46 50 58 67 71 74 69 50 43 38 21 5 5 15 22 18 12 9 5 356 344 336 331 329
113 116 116 107 93 86 83 77 72 70 71 77 82 80 76 71 66 66 69 72 76 80 82 83 81 76 74 75 72 66 61 61 61 64 70 73 74 75 75 73 72 72 72 72 69 67 67 64 60 57 54 52 53 54 53 54 55 56 58 60 59 57 60 64 61 60 62 56 47 41 33 27 38 58 56 45 32 18 9 1 351 343 343 344 343
96 103 112 117 116 111 103 95 86 75 67 67 72 75 76 76 73 69 66 69 75 80 81 81 78 74 73 75 75 70 65 63 61 61 65 70 74 77 77 75 74 72 70 70 67 64 63 62 57 52 48 46 47 50 51 51 52 54 58 63 63 60 61 61 59 62 61 51 41 28 17 18 54 73 58 50 39 22 9 3 0 0 1 358 350
99 95 97 101 103 105 107 105 98 87 73 64 63 64 66 71 74 68 64 67 73 76 78 79 80 77 73 73 74 71 69 70 69 66 66 68 73 78 81 80 78 74 68 65 62 59 58 57 54 50 44 39 40 47 51 51 50 51 51 54 56 53 50 47 49 59 61 48 31 17 20 35 58 67 64 59 44 27 20 22 22 19 18 15 5
120 109 103 99 92 87 85 83 81 83 82 74 64 60 61 67 68 60 54 59 68 72 71 74 84 87 79 74 75 74 71 70 72 72 71 71 72 75 78 79 78 77 73 68 62 58 55 54 55 53 46 39 40 46 52 53 53 53 52 53 53 49 43 38 41 45 45 46 48 45 50 64 74 76 72 61 48 41 39 39 36 33 35 36 32
124 119 113 106 100 95 88 82 78 79 82 80 74 68 67 68 62 51 46 51 62 68 65 64 73 87 91 83 77 74 72 69 68 70 73 75 76 75 76 77 77 78 79 75 69 64 59 55 53 51 47 44 43 45 47 48 47 46 48 52 52 49 46 48 52 55 57 60 65 70 73 76 75 73 69 62 57 56 53 48 46 47 50 52 55
114 116 115 113 111 107 102 97 92 89 88 87 82 78 74 70 66 56 50 55 67 72 66 61 61 68 84 92 82 73 70 65 63 66 71 75 78 77 77 79 79 79 79 77 73 69 62 56 51 47 46 45 44 45 46 45 43 43 44 47 49 49 52 58 62 64 65 66 66 68 68 68 65 63 62 60 59 59 58 55 53 53 55 57 60
115 117 121 123 122 118 115 113 109 105 101 97 92 87 79 71 68 63 57 60 69 71 65 59 55 55 64 75 76 76 74 64 60 64 69 74 80 80 78 77 77 77 77 75 72 69 64 57 51 48 47 47 47 49 52 51 50 48 47 50 52 53 57 62 64 66 67 64 63 62 60 57 55 54 53 55 58 60 61 58 56 56 59 60 60
130 130 128 127 129 130 128 126 124 120 115 111 105 98 87 75 67 63 60 64 68 66 60 55 51 50 53 55 56 59 64 60 56 60 71 79 85 88 85 80 77 75 73 71 71 70 66 59 54 50 51 54 56 58 59 59 55 52 54 60 62 60 62 63 63 64 64 61 59 58 55 52 52 51 50 55 62 65 64 61 58 57 59 61 62